When you browse on this site, cookies collect data to enhance your experience and personalize the content and advertising you see.
Visit our Privacy Policy to learn more. By continuing to use the site, you agree to this use of cookies and data.
  • In Hungary
  • List of Countries
  • For 7 days
  • Water Temperature
  • Weather Map
  • News
  • Weather Widgets
  • user-avatar
    Login

    Hourly Weather Putila

    Today, 9 April, Thursday

    Time Temperature Precipitation Wind Pressure Humidity
    00:00 +6°C° 0 mm 1 mps 686 mmHg 68%
    01:00 +5°C° 0 mm 1 mps 686 mmHg 70%
    02:00 +5°C° 0 mm 1 mps 686 mmHg 72%
    03:00 +5°C° 0 mm 1 mps 686 mmHg 74%
    04:00 +5°C° 0 mm 1 mps 685 mmHg 76%
    05:00 +4°C° 0 mm 1 mps 685 mmHg 78%
    06:00 +6°C° 0 mm 1 mps 685 mmHg 70%
    07:00 +8°C° 0 mm 1 mps 686 mmHg 63%
    08:00 +10°C° 0 mm 1 mps 686 mmHg 55%
    09:00 +13°C° 0 mm 1 mps 686 mmHg 48%
    10:00 +15°C° 0 mm 1 mps 686 mmHg 40%
    11:00 +18°C° 0 mm 1 mps 686 mmHg 33%
    12:00 +19°C° 0 mm 1 mps 686 mmHg 32%
    13:00 +19°C° 0 mm 1 mps 686 mmHg 31%
    14:00 +18°C° 0 mm 2 mps 686 mmHg 31%
    15:00 +18°C° 0 mm 2 mps 685 mmHg 34%
    16:00 +17°C° 0 mm 2 mps 684 mmHg 37%
    17:00 +16°C° 0 mm 2 mps 684 mmHg 40%
    18:00 +14°C° 0 mm 1 mps 683 mmHg 49%
    19:00 +11°C° 0 mm 1 mps 683 mmHg 58%
    20:00 +9°C° 0 mm 1 mps 682 mmHg 67%
    21:00 +8°C° 0 mm 1 mps 682 mmHg 70%
    22:00 +8°C° 0 mm 1 mps 682 mmHg 73%
    23:00 +7°C° 0 mm 1 mps 682 mmHg 75%

    Tomorrow, 10 April, Friday

    Time Temperature Precipitation Wind Pressure Humidity
    00:00 +7°C° 0 mm 1 mps 682 mmHg 76%
    01:00 +6°C° 0 mm 1 mps 682 mmHg 76%
    02:00 +6°C° 0 mm 1 mps 682 mmHg 76%
    03:00 +6°C° 0 mm 1 mps 682 mmHg 77%
    04:00 +5°C° 0 mm 1 mps 682 mmHg 77%
    05:00 +5°C° 0 mm 1 mps 682 mmHg 78%
    06:00 +6°C° 0 mm 1 mps 683 mmHg 74%
    07:00 +7°C° 0 mm 2 mps 683 mmHg 70%
    08:00 +8°C° 0 mm 2 mps 684 mmHg 66%
    09:00 +8°C° 0 mm 3 mps 684 mmHg 65%
    10:00 +9°C° 0 mm 3 mps 684 mmHg 64%
    11:00 +9°C° 0 mm 3 mps 684 mmHg 62%
    12:00 +8°C° 0 mm 4 mps 684 mmHg 62%
    13:00 +8°C° 0 mm 4 mps 684 mmHg 62%
    14:00 +8°C° 0 mm 4 mps 684 mmHg 61%
    15:00 +7°C° 0 mm 4 mps 684 mmHg 61%
    16:00 +7°C° 0 mm 4 mps 684 mmHg 60%
    17:00 +6°C° 0 mm 4 mps 684 mmHg 59%
    18:00 +5°C° 0 mm 3 mps 684 mmHg 66%
    19:00 +4°C° 0 mm 2 mps 684 mmHg 73%
    20:00 +2°C° 0 mm 2 mps 684 mmHg 79%
    21:00 +3°C° 0 mm 1 mps 684 mmHg 80%
    22:00 +2°C° 0 mm 1 mps 684 mmHg 81%
    23:00 +2°C° 0 mm 1 mps 684 mmHg 82%

    Day after tomorrow, 11 April, Saturday

    Time Temperature Precipitation Wind Pressure Humidity
    00:00 +1°C° 0 mm 1 mps 684 mmHg 82%
    01:00 +1°C° 0 mm 1 mps 684 mmHg 82%
    02:00 0°C° 0 mm 1 mps 684 mmHg 83%
    03:00 0°C° 0 mm 1 mps 684 mmHg 81%
    04:00 -1°C° 0 mm 0 mps 684 mmHg 79%
    05:00 -1°C° 0 mm 0 mps 684 mmHg 77%
    06:00 +1°C° 0 mm 0 mps 684 mmHg 69%
    07:00 +3°C° 0 mm 0 mps 685 mmHg 61%
    08:00 +4°C° 0 mm 0 mps 685 mmHg 53%
    09:00 +6°C° 0 mm 1 mps 685 mmHg 49%
    10:00 +8°C° 0 mm 1 mps 686 mmHg 46%
    11:00 +8°C° 0 mm 2 mps 686 mmHg 42%
    12:00 +8°C° 0 mm 2 mps 686 mmHg 41%
    13:00 +9°C° 0 mm 3 mps 686 mmHg 40%
    14:00 +9°C° 0 mm 3 mps 686 mmHg 39%
    15:00 +9°C° 0 mm 3 mps 686 mmHg 44%
    16:00 +8°C° 0 mm 3 mps 686 mmHg 48%
    17:00 +7°C° 0 mm 3 mps 685 mmHg 53%
    18:00 +6°C° 0 mm 2 mps 685 mmHg 60%
    19:00 +4°C° 0 mm 2 mps 686 mmHg 68%
    20:00 +4°C° 0 mm 1 mps 686 mmHg 75%
    21:00 +3°C° 0 mm 1 mps 686 mmHg 77%
    22:00 +2°C° 0 mm 0 mps 686 mmHg 79%
    23:00 +1°C° 0 mm 0 mps 686 mmHg 81%

    12 April, Sunday

    Time Temperature Precipitation Wind Pressure Humidity
    00:00 +1°C° 0 mm 0 mps 686 mmHg 82%
    01:00 +1°C° 0 mm 1 mps 686 mmHg 83%
    02:00 +1°C° 0 mm 1 mps 686 mmHg 85%
    03:00 +1°C° 0 mm 1 mps 686 mmHg 85%
    04:00 0°C° 0 mm 1 mps 686 mmHg 85%
    05:00 0°C° 0 mm 1 mps 686 mmHg 86%
    06:00 +2°C° 0 mm 1 mps 686 mmHg 77%
    07:00 +4°C° 0 mm 1 mps 686 mmHg 69%
    08:00 +6°C° 0 mm 1 mps 687 mmHg 61%
    09:00 +8°C° 0 mm 1 mps 687 mmHg 55%
    10:00 +10°C° 0 mm 2 mps 687 mmHg 49%
    11:00 +13°C° 0 mm 2 mps 687 mmHg 44%
    12:00 +13°C° 0 mm 2 mps 686 mmHg 43%
    13:00 +13°C° 0 mm 2 mps 686 mmHg 43%
    14:00 +13°C° 0 mm 2 mps 685 mmHg 43%
    15:00 +12°C° 0 mm 3 mps 685 mmHg 45%
    16:00 +12°C° 0 mm 3 mps 684 mmHg 46%
    17:00 +11°C° 0 mm 3 mps 684 mmHg 48%
    18:00 +9°C° 0 mm 2 mps 683 mmHg 56%
    19:00 +7°C° 0 mm 2 mps 683 mmHg 65%
    20:00 +5°C° 0 mm 2 mps 682 mmHg 73%
    21:00 +4°C° 0 mm 2 mps 682 mmHg 76%
    22:00 +4°C° 0 mm 2 mps 682 mmHg 79%
    23:00 +3°C° 0 mm 2 mps 682 mmHg 82%

    13 April, Monday

    Time Temperature Precipitation Wind Pressure Humidity
    00:00 +3°C° 0 mm 2 mps 682 mmHg 83%
    01:00 +3°C° 0 mm 2 mps 681 mmHg 84%
    02:00 +3°C° 0 mm 2 mps 681 mmHg 86%
    03:00 +3°C° 0 mm 2 mps 681 mmHg 86%
    04:00 +3°C° 0 mm 2 mps 681 mmHg 86%
    05:00 +3°C° 0 mm 2 mps 681 mmHg 86%
    06:00 +4°C° 0 mm 2 mps 681 mmHg 79%
    07:00 +6°C° 0 mm 2 mps 681 mmHg 71%
    08:00 +8°C° 0 mm 2 mps 681 mmHg 64%
    09:00 +10°C° 0 mm 2 mps 681 mmHg 58%
    10:00 +12°C° 0 mm 2 mps 681 mmHg 52%
    11:00 +13°C° 0 mm 3 mps 681 mmHg 45%
    12:00 +13°C° 0 mm 3 mps 681 mmHg 45%
    13:00 +13°C° 0 mm 3 mps 680 mmHg 45%
    14:00 +14°C° 0 mm 4 mps 680 mmHg 44%
    15:00 +13°C° 0 mm 4 mps 679 mmHg 48%
    16:00 +12°C° 0 mm 4 mps 679 mmHg 51%
    17:00 +12°C° 0 mm 4 mps 678 mmHg 55%
    18:00 +10°C° 0 mm 4 mps 678 mmHg 62%
    19:00 +8°C° 0 mm 4 mps 677 mmHg 70%
    20:00 +7°C° 0 mm 3 mps 677 mmHg 77%
    21:00 +7°C° 0 mm 3 mps 676 mmHg 78%
    22:00 +7°C° 0 mm 3 mps 676 mmHg 79%
    23:00 +7°C° 0 mm 3 mps 676 mmHg 80%

    14 April, Tuesday

    Time Temperature Precipitation Wind Pressure Humidity
    00:00 +7°C° 0.4 mm 3 mps 676 mmHg 83%
    01:00 +7°C° 0.4 mm 3 mps 676 mmHg 87%
    02:00 +5°C° 0.4 mm 3 mps 676 mmHg 91%
    03:00 +3°C° 1.3 mm 3 mps 676 mmHg 91%
    04:00 0°C° 1.3 mm 4 mps 677 mmHg 92%
    05:00 -4°C° 1.3 mm 5 mps 677 mmHg 92%
    06:00 -5°C° 0.1 mm 5 mps 678 mmHg 87%
    07:00 -6°C° 0.1 mm 5 mps 679 mmHg 82%
    08:00 -7°C° 0.1 mm 5 mps 679 mmHg 77%
    09:00 -6°C° 0 mm 5 mps 680 mmHg 67%
    10:00 -5°C° 0 mm 5 mps 680 mmHg 58%
    11:00 -4°C° 0 mm 5 mps 681 mmHg 49%
    12:00 -2°C° 0 mm 5 mps 681 mmHg 46%
    13:00 -1°C° 0 mm 4 mps 682 mmHg 42%
    14:00 0°C° 0 mm 4 mps 682 mmHg 39%
    15:00 0°C° 0 mm 4 mps 682 mmHg 40%
    16:00 0°C° 0 mm 4 mps 682 mmHg 40%
    17:00 0°C° 0 mm 4 mps 683 mmHg 41%
    18:00 -1°C° 0 mm 3 mps 683 mmHg 47%
    19:00 -2°C° 0 mm 3 mps 683 mmHg 53%
    20:00 -4°C° 0 mm 2 mps 683 mmHg 59%
    21:00 -4°C° 0 mm 2 mps 683 mmHg 60%
    22:00 -4°C° 0 mm 2 mps 684 mmHg 61%
    23:00 -2°C° 0 mm 1 mps 684 mmHg 63%
    Show more